Regional Weather Roundup
Issued by NWS

Current Version | Previous Version | Text Only | Print | Product List | Glossary Off
Versions: 1 2 3 4 5 6 7 8 9 10 11 12 13 14 15 16 17 18 19 20 21 22 23 24 25 26 27 28 29 30 31 32 33 34 35 36 37 38 39 40 41 42 43 44 45 46 47 48 49 50

000
ASUS44 KBMX 262310
RWRAL

ALABAMA REGIONAL WEATHER ROUNDUP
NATIONAL WEATHER SERVICE BIRMINGHAM AL
600 PM CDT THU MAR 26 2015

NOTE: "FAIR" INDICATES FEW OR NO CLOUDS BELOW 12,000 FEET
WITH NO SIGNIFICANT WEATHER AND/OR OBSTRUCTIONS TO VISIBILITY.

THE REMARK "TC" DENOTES TEMPERATURE IN DEGREES CELSIUS.

ALZ001>011-014-016>018-020-270000-
NORTH ALABAMA

CITY           SKY/WX    TMP DP  RH WIND       PRES   REMARKS
MUSCLE SHOALS  CLOUDY    52  44  74 N14G24    29.92R
HUNTSVILLE     CLOUDY    57  50  77 N13G24    29.85R
DECATUR        CLOUDY    54  48  80 N17       29.87R
HALEYVILLE       N/A     53  51  93 N14G23    29.89R
GADSDEN        CLOUDY    72  54  53 S8        29.76F
$$

ALZ012-013-022-023-030>036-040>044-270000-
WEST CENTRAL ALABAMA

CITY           SKY/WX    TMP DP  RH WIND       PRES   REMARKS
TUSCALOOSA     CLOUDY    73  56  54 S3        29.77F
$$

ALZ015-024>027-033>036-040>044-270000-
CENTRAL ALABAMA

CITY           SKY/WX    TMP DP  RH WIND       PRES   REMARKS
BIRMINGHAM     CLOUDY    72  57  59 SW7       29.78F
MONTGOMERY       N/A     74  60  61 MISG      29.78F
SHELBY CO ARPT CLOUDY    67  63  87 CALM      29.79F
MAXWELL AFB    CLOUDY    74  61  64 S8        29.77F
GREENVILLE     FAIR      71  63  75 S8        29.78F
$$

ALZ019-021-028-029-037-038-045>048-270000-
EAST CENTRAL ALABAMA

CITY           SKY/WX    TMP DP  RH WIND       PRES   REMARKS
ANNISTON       CLOUDY    72  55  55 SW6       29.78F
ALEXANDER CITY CLOUDY    74  55  50 S3        29.79F
AUBURN         CLOUDY    70  52  52 S10       29.83F
$$

ALZ051>064-270000-
SOUTHWEST ALABAMA

CITY           SKY/WX    TMP DP  RH WIND       PRES   REMARKS
MOBILE         CLOUDY    67  65  93 SW7       29.84R
BROOKLEY FIELD CLOUDY    68  65  90 VRB7      29.85R
EVERGREEN      CLOUDY    69  63  81 S8        29.80S
$$

ALZ049-050-065>069-270000-
SOUTHEAST ALABAMA

CITY           SKY/WX    TMP DP  RH WIND       PRES   REMARKS
DOTHAN         CLOUDY    67  61  81 S10       29.85F
OZARK          CLOUDY    68  59  74 S9        29.81F
TROY           CLOUDY    71  63  75 S6        29.80F
EUFAULA        FAIR      70  62  76 S6        29.80F
$$


USA.gov is the U.S. government's official web portal to all federal, state and local government web resources and services.